Regional Weather Roundup
Issued by NWS Little Rock, AR

Home | Current Version | Previous Version | Text Only | Print | Product List | Glossary Off
Versions: 1 2 3 4 5 6 7 8 9 10 11 12 13 14 15 16 17 18 19 20 21 22 23 24 25 26 27 28 29 30 31

000
ASUS44 KLZK 280012
RWRLZK

WEATHER ROUNDUP FOR ARKANSAS
NATIONAL WEATHER SERVICE LITTLE ROCK AR
700 PM CDT THU JUL 27 2017

NOTE: "FAIR" INDICATES FEW OR NO CLOUDS BELOW 12,000 FEET WITH NO
SIGNIFICANT WEATHER AND/OR OBSTRUCTIONS TO VISIBILITY.

ARZ001-003-010-029-280100-
NORTHWEST ARKANSAS

CITY           SKY/WX    TMP DP  RH WIND       PRES   REMARKS
FAYETTEVILLE   MOSUNNY   84  75  74 SW5       29.92F HX  92
6HR MIN TEMP:  84; 6HR MAX TEMP:  88;

FORT SMITH     PTSUNNY   95  74  50 W9        29.85S HX 105
6HR MIN TEMP:  90; 6HR MAX TEMP:  96;

HARRISON       PTSUNNY   83  77  82 NE5       29.93F HX  92
6HR MIN TEMP:  80; 6HR MAX TEMP:  86; 6HR PCP: TRACE;

BENTONVILLE    MOSUNNY   86  72  62 SW5       29.94S HX  92
6HR MIN TEMP:  79; 6HR MAX TEMP:  90;

ROGERS         PTSUNNY   87  74  64 SW7       29.94S HX  95
6HR MIN TEMP:  80; 6HR MAX TEMP:  90;

SILOAM SPGS    MOSUNNY   84  72  65 SW5       29.92S HX  89
6HR MIN TEMP:  82; 6HR MAX TEMP:  90;

HIGHFILL       PTSUNNY   86  74  67 SW5       29.93S HX  94
6HR MIN TEMP:  81; 6HR MAX TEMP:  90;

SPRINGDALE     PTSUNNY   86  73  66 SW8       29.94F HX  93
$$

ARZ004-005-016-280100-
NORTH CENTRAL ARKANSAS

CITY           SKY/WX    TMP DP  RH WIND       PRES   REMARKS
BATESVILLE     CLOUDY    86  75  70 CALM      29.88S HX  95
6HR MIN TEMP:  86; 6HR MAX TEMP:  90;

FLIPPIN        CLOUDY    82  73  74 NE3       29.89F HX  88
6HR MIN TEMP:  79; 6HR MAX TEMP:  82; 6HR PCP:  0.01;

MTN HOME       CLOUDY    82  76  81 E3        29.91F HX  89
6HR MIN TEMP:  77; 6HR MAX TEMP:  83; 6HR PCP:  0.02;

$$

ARZ040-041-280100-
WEST CENTRAL ARKANSAS

CITY           SKY/WX    TMP DP  RH WIND       PRES   REMARKS
MENA           MOSUNNY   93  75  55 SW7       29.93R HX 104
MOUNT IDA      MOSUNNY   90  72  55 VRB5      29.89S HX  97
6HR MIN TEMP:  90; 6HR MAX TEMP:  97;

$$

ARZ009-017-025-026-028-280100-
NORTHEAST ARKANSAS

CITY           SKY/WX    TMP DP  RH WIND       PRES   REMARKS
CORNING        LGT RAIN  84  79  84 NW6       29.89F HX  96
JONESBORO      LGT RAIN  82  76  81 SW7       29.89R HX  89
6HR MIN TEMP:  82; 6HR MAX TEMP:  92; 6HR PCP: TRACE;

WALNUT RIDGE   CLOUDY    82  75  78 NE3       29.88F HX  89
6HR MIN TEMP:  81; 6HR MAX TEMP:  91;

BLYTHEVILLE    MOSUNNY   79  76  90 SW9       29.92R
6HR MIN TEMP:  76; 6HR MAX TEMP:  92; 6HR PCP:  1.25;

$$

ARZ022-023-033-042-044-280100-
CENTRAL ARKANSAS

CITY           SKY/WX    TMP DP  RH WIND       PRES   REMARKS
LITTLE ROCK    CLOUDY    89  75  63 SW8       29.88S HX  99
6HR MIN TEMP:  89; 6HR MAX TEMP:  95;

N LITTLE ROCK    N/A     88  75  63 SW7       29.86S HX  98
6HR MIN TEMP:  88; 6HR MAX TEMP:  93;

JACKSONVILLE   CLOUDY    90  76  62 S10       29.86F HX 101
6HR MIN TEMP:  90; 6HR MAX TEMP:  96; 6HR PCP: TRACE;

CONWAY           N/A     82  79  89 MISG      29.84F HX  93
SEARCY         CLOUDY    82  81  94 VRB6      29.88F THUNDER HX  95
6HR MIN TEMP:  82; 6HR MAX TEMP:  93;

HOT SPRINGS    MOSUNNY   92  75  57 SW9       29.89F HX 103
6HR MIN TEMP:  92; 6HR MAX TEMP:  98;

RUSSELLVILLE   CLOUDY    91  73  55 SW5       29.85F HX  99
6HR MIN TEMP:  91; 6HR MAX TEMP:  97;

CLINTON        FAIR      88  79  74 CALM      29.87S HX 102
$$

ARZ036-280100-
EAST ARKANSAS

CITY           SKY/WX    TMP DP  RH WIND       PRES   REMARKS
WEST MEMPHIS   CLOUDY    84  78  82 CALM      29.88F HX  95
6HR MIN TEMP:  82; 6HR MAX TEMP:  93;

$$

ARZ050-053-066-070-073-280100-
SOUTHWEST ARKANSAS

CITY           SKY/WX    TMP DP  RH WIND       PRES   REMARKS
ARKADELPHIA    FAIR      90  78  68 S5        29.89F HX 104
6HR MIN TEMP:  90; 6HR MAX TEMP:  94;

CAMDEN         MOSUNNY   90  73  58 S6        29.90S HX  98
TEXARKANA      PTSUNNY   92  73  53 S5        29.90F HX 100
6HR MIN TEMP:  90; 6HR MAX TEMP:  95;

EL DORADO      MOSUNNY   90  75  61 S7        29.92F HX 100
6HR MIN TEMP:  90; 6HR MAX TEMP:  96;

DE QUEEN       MOSUNNY   91  78  65 SW6       29.87F HX 106
6HR MIN TEMP:  91; 6HR MAX TEMP:  95;

$$

ARZ056-057-069-280100-
SOUTHEAST ARKANSAS

CITY           SKY/WX    TMP DP  RH WIND       PRES   REMARKS
PINE BLUFF     CLOUDY    88  77  69 S10       29.89F HX 100
6HR MIN TEMP:  88; 6HR MAX TEMP:  92;

STUTTGART      CLOUDY    90  70  51 S10       29.89F HX  95
6HR MIN TEMP:  90; 6HR MAX TEMP:  93;

MONTICELLO     MOSUNNY   91  74  57 SW8       29.91F HX 100
6HR MIN TEMP:  91; 6HR MAX TEMP:  95;


$$






USA.gov is the U.S. government's official web portal to all federal, state and local government web resources and services.